map of MBJ home
Great Circle Mapper logo
MBJ - Airport
Location
City:  Montego Bay, Jamaica
Name:Sangster International Airport
ICAO / IATA:MKJS / MBJ

Details
Type:Airport (Aerodrome, Airfield)
Use:Public/Civil, International (customs port of entry)
Latitude:1830'13"N (18.503717)
Longitude:7754'48"W (-77.913357)
Datum:WGS 1984
Elevation:4 ft (1 m)
Variation:6.63W (WMM2015 magnetic declination)
-0.11 annual change
Runways:1
Longest:8735 × 150 ft (2662 × 45.5 m), paved

Time
Time Zone:UTC-5
Local Time:

Weather
METAR:MKJS 301800Z 07009KT 9999 SCT020 SCT034 26/23 Q1016
TAF:MKJS 301645Z 3018/3118 07015KT 9999 SCT020 BKN030
TEMPO 3020/3101 5000 SHRA BKN020
BECMG 3101/3103 12007KT FEW022
BECMG 3114/3116 06015KT SCT020

Related Locations
Nearby:
Farthest:CCK: 11879 mi / 19118 km
West Island (Pulau Panjang) [Cocos (Keeling) Islands], CC

Find:

   beyond  
but within

Other Information
Maps:
NOTAMs:
Links:
Sources:

  
flag of Jamaica   

Sectional Chart

Flight Planning
at skyvector.com

Satellite Image

Google Maps Satellite View

 

Copyright © 2004-2015 Karl L. Swartz. All rights reserved.
The Great Circle Mapper name and logo are trademarks of the Great Circle Mapper.
All other trademarks mentioned herein belong to their respective owners.
Please see credits for attibutions and further copyright information.

  Follow gcmap on Facebook Follow gcmap on Twitter

hCard Microformat

Geo Microformat